This is the latest recevied weather packets stored in our database for station/object IK6IHU-3. If no packets are shown the sender has not sent any weather packets the latest 10 day(s).
| Time | Temp. | Humidity | Pressure | Rain* | Wind** | Luminosity | Snow |
|---|---|---|---|---|---|---|---|
| 1777473789 | 21.67° C | 51% | 1013.5 hPa | 0 mm | - | 0 W/m² | - |
| 1777473730 | 21.67° C | 51% | 1013.4 hPa | 0 mm | - | 0 W/m² | - |
| 1777473670 | 22.22° C | 52% | 1013.5 hPa | 0 mm | - | 0 W/m² | - |
| 1777473610 | 22.22° C | 53% | 1013.7 hPa | 0 mm | - | 0 W/m² | - |
| 1777473550 | 21.67° C | 51% | 1013.4 hPa | 0 mm | - | 0 W/m² | - |
| 1777473489 | 22.22° C | 53% | 1013.5 hPa | 0 mm | - | 0 W/m² | - |
| 1777473429 | 22.22° C | 53% | 1013.5 hPa | 0 mm | - | 0 W/m² | - |
| 1777473370 | 21.67° C | 52% | 1013.5 hPa | 0 mm | - | 0 W/m² | - |
| 1777473310 | 21.67° C | 52% | 1013.5 hPa | 0 mm | - | 0 W/m² | - |
| 1777473249 | 21.67° C | 50% | 1013.5 hPa | 0 mm | - | 0 W/m² | - |
| 1777473190 | 21.67° C | 52% | 1013.5 hPa | 0 mm | - | 0 W/m² | - |
| 1777473129 | 21.67° C | 52% | 1013.4 hPa | 0 mm | - | 0 W/m² | - |
| 1777473069 | 21.67° C | 52% | 1013.6 hPa | 0 mm | - | 0 W/m² | - |
| 1777473010 | 22.22° C | 52% | 1013.6 hPa | 0 mm | - | 0 W/m² | - |
| 1777472950 | 22.22° C | 53% | 1013.6 hPa | 0 mm | - | 0 W/m² | - |
| 1777472890 | 22.22° C | 52% | 1013.3 hPa | 0 mm | - | 0 W/m² | - |
| 1777472829 | 22.22° C | 51% | 1013.6 hPa | 0 mm | - | 0 W/m² | - |
| 1777472769 | 22.22° C | 52% | 1013.4 hPa | 0 mm | - | 0 W/m² | - |
| 1777472709 | 22.22° C | 53% | 1013.6 hPa | 0 mm | - | 0 W/m² | - |
| 1777472649 | 22.22° C | 50% | 1013.6 hPa | 0 mm | - | 0 W/m² | - |
| 1777472590 | 22.22° C | 53% | 1013.6 hPa | 0 mm | - | 0 W/m² | - |
| 1777472529 | 22.22° C | 53% | 1013.4 hPa | 0 mm | - | 0 W/m² | - |
| 1777472470 | 22.22° C | 51% | 1013.4 hPa | 0 mm | - | 0 W/m² | - |
| 1777472410 | 22.22° C | 51% | 1013.5 hPa | 0 mm | - | 0 W/m² | - |
| 1777472349 | 22.22° C | 52% | 1013.6 hPa | 0 mm | - | 0 W/m² | - |
* Rain latest hour (hover to see other rain measurements)
** Current wind speed in m/s (hover to see current wind gust speed)